#timestamp,LO_Frequency,Hit,StdDev 
1649970015.6,286047000.1,N
1649970035.4,286047000.4,N
1649970055.2,286046998.8,N
1649970075.1,286047000.9,N
1649970076.0,286047000.9,N
1649970095.8,286047002.6,N
1649970115.7,286047002.8,N
1649970135.5,286047002.8,N
1649970155.3,286047001.9,N
1649970175.2,286047002.2,N
1649970195.0,286047001.9,N
1649970195.9,286047001.9,N
1649970215.8,286047002.0,N
1649970235.6,286047002.4,N
1649970255.4,286047002.2,N
1649970275.3,286047002.2,N
1649970295.1,286047003.2,N
1649970315.9,286047002.5,N
1649970335.7,286047002.2,N
1649970355.5,286047000.4,N
1649970375.4,286047000.9,N
1649970395.2,286046998.6,N
1649970415.0,286046999.1,N
1649970415.9,286046999.1,N
1649970435.8,286046999.2,N
1649970455.6,286047000.9,N
1649970475.5,286047000.2,N
1649970495.3,286047000.3,N
1649970515.1,286047000.2,N
1649970535.9,286047002.4,N
1649970555.7,286046999.8,N
1649970575.5,286047001.5,N
1649970595.4,286047002.7,N
1649970615.2,286047000.4,N
1649970635.1,286047002.8,N
1649970636.0,286047002.8,N
1649970655.8,286047001.6,N
1649970675.6,286047002.5,N
1649970695.5,286047000.5,N
1649970715.3,286047000.7,N
1649970735.2,286046998.9,N
1649970755.9,286046998.2,N
1649970775.7,286047000.7,N
1649970795.6,286047000.9,N
1649970815.4,286046998.3,N
1649970835.2,286047000.7,N
1649970855.1,286047002.2,N
1649970856.0,286047002.2,N
1649970875.8,286047001.4,N
1649970895.7,286047001.5,N
1649970915.5,286047000.4,N
1649970935.3,286047000.7,N
1649970955.2,286047000.2,N
1649970975.0,286047000.3,N
1649970975.9,286047000.3,N
1649970995.8,286047002.3,N
1649971015.6,286047002.6,N
1649971035.4,286047002.3,N
1649971055.3,286047000.7,N
1649971075.1,286047000.9,N
1649971095.8,286046999.8,N
1649971115.7,286047003.8,Y
1649971135.5,286047004.4,P
1649971155.4,286047002.6,N
1649971175.2,286047000.1,N
1649971195.0,286047000.4,N
1649971195.9,286047000.4,N
1649971215.8,286046997.1,N
1649971235.6,286046998.3,N
1649971255.4,286047000.8,N
1649971275.3,286047000.0,N
1649971295.1,286047000.9,N
1649971315.9,286046999.0,N
1649971335.7,286046998.9,N
1649971355.5,286046998.6,N
1649971375.4,286046998.4,N
1649971395.2,286047001.0,N
1649971415.0,286047001.0,N
1649971416.0,286047001.0,N
1649971435.8,286046998.7,N
1649971455.6,286046998.4,N
1649971475.5,286046996.9,N
1649971495.3,286046998.7,N
1649971515.1,286047000.8,N
1649971535.9,286046998.6,N
1649971555.7,286046999.7,N
1649971575.5,286046999.7,N
1649971595.4,286047002.3,N
1649971615.2,286047002.1,N
1649971635.1,286047002.2,N
1649971636.0,286047002.2,N
1649971655.8,286047002.3,N
1649971675.6,286047003.3,N
1649971695.5,286047003.1,N
1649971715.3,286047000.4,N
1649971735.2,286047002.3,N
1649971755.9,286047002.0,N
1649971775.7,286047002.2,N
1649971795.6,286047000.8,N
1649971815.4,286046999.1,N
1649971835.2,286047000.6,N
1649971855.1,286047000.3,N
1649971856.0,286047000.3,N
1649971875.8,286046999.7,N
1649971895.7,286047000.8,N
1649971915.5,286047001.1,N
1649971935.3,286046998.4,N
1649971955.2,286047000.9,N
1649971975.0,286046997.5,N
1649971975.9,286046997.5,N
1649971995.8,286046996.8,N
1649972015.6,286046999.5,N
1649972035.4,286047001.2,N
1649972055.3,286047001.2,N
1649972075.1,286046998.2,N
1649972095.8,286046998.4,N
1649972115.7,286046996.7,N
1649972135.5,286046996.6,N
1649972155.4,286047000.8,N
1649972175.2,286047000.4,N
1649972195.0,286047002.1,N
1649972195.9,286047002.1,N
1649972215.8,286047000.9,N
1649972235.6,286047000.6,N
1649972255.5,286047001.1,N
1649972275.3,286046998.2,N
1649972295.1,286047000.0,N
1649972315.9,286047000.0,N
1649972335.7,286047000.1,N
1649972355.5,286047001.8,N
1649972375.4,286047004.2,N
1649972395.2,286047004.4,N
1649972415.1,286047001.6,N
1649972416.0,286047001.6,N
1649972435.8,286047001.9,N
1649972455.6,286047003.8,N
1649972475.5,286047002.4,N
1649972495.3,286046999.9,N
1649972515.2,286046999.5,N
1649972535.9,286046996.7,N
1649972555.7,286047001.1,N
1649972575.6,286046999.4,N
1649972595.4,286046999.1,N
1649972615.3,286046999.3,N
1649972635.1,286046998.2,N
1649972636.0,286046998.2,N
1649972655.8,286047000.2,N
1649972675.7,286047002.3,N
1649972695.5,286047002.4,N
1649972715.3,286047000.4,N
1649972735.2,286047004.4,N
1649972755.0,286047001.6,N
1649972755.9,286047001.6,N
1649972775.8,286047000.2,N
1649972795.6,286046998.4,N
1649972815.4,286046999.6,N
1649972835.3,286047006.0,Y
1649972855.1,286047006.4,P
1649972875.9,286047015.7,P
1649972895.7,286047015.5,N
1649972915.5,286047009.6,N
1649972935.4,286047007.2,N
1649972955.2,286047004.8,N
1649972975.1,286047003.1,N
1649972976.0,286047003.1,N
1649972995.8,286047001.6,N
1649973015.6,286046998.8,N
1649973035.5,286046999.2,N
1649973055.3,286046998.6,N
1649973075.1,286046998.7,N
1649973095.9,286047000.5,N
1649973115.7,286047000.5,N
1649973135.6,286046998.2,N
1649973155.4,286046996.8,N
1649973175.2,286046995.0,N
1649973195.1,286046997.8,N
1649973196.0,286046997.8,N
1649973215.8,286046997.4,N
1649973235.6,286046997.0,N
1649973255.5,286046999.3,N
1649973275.3,286046998.2,N
1649973295.2,286046998.3,N
1649973315.9,286046998.5,N
1649973335.7,286046997.6,N
1649973355.6,286046993.3,N
1649973375.4,286046993.6,N
1649973395.2,286046994.2,N
1649973415.1,286046994.0,N
1649973416.0,286046994.0,N
1649973435.8,286046994.8,N
1649973455.7,286046992.8,N
1649973475.5,286046993.2,N
1649973495.3,286046990.5,Y
1649973515.2,286046993.8,P
1649973535.0,286046993.9,P
1649973535.9,286046993.9,P
1649973555.8,286046994.0,Y
1649973575.6,286047000.6,P
1649973595.4,286046998.4,N
